Klamath Falls Airport Klamath Falls US
ICAO: KLMT
IATA: LMT
Category: Medium
Scheduled Services: Yes

Elevation: 4095 ft
TransAlt. 18000 ft.

Airport Communications:
KINGSLEY APP/DEP:123.675
ATIS:126.5
CTAF:118.2
GND:121.9
ANG BASE OPS:38.895
MC MINNVILLE RDO:122.6
KINGSLEY TWR:118.2
UNICOM:122.95

KLMT Zoom In..

If you have problems with the map follow the link
https://www.worldairports.se/pages/airport.php?
ICAO=KLMT

Runways:

(A) RW 07 length 5258 ft width 100 ft
---- / hdg 73

(B) RW 14 length 10301 ft width 150 ft
---- / hdg 141

(C) RW 25 length 5258 ft width 100 ft
---- / hdg 253

(D) RW 32 length 10301 ft width 150 ft
ILS 109.50 / hdg 321

Location; KLMT
Day. 21 / Time. 23.53 Zulu
* Altimeter: 30.16
* Temperature: 16° c. 60.8°f.
* Wind from: 290° Speed 03 kn.
Dewpoint: -01° c.
Visibility: 10 Statute Miles.
Clouds: Clear (automated report).

KLMT 212353Z AUTO 29003KT 10SM CLR 16/M01 A3016 RMK AO2 SLP204 T01561006 10167 20094 56012


Wind From 290°
Speed 03 kn.

 
 
jpsmedia.com for Web Design worldairports.se 2019   terms of use